Regional Weather Roundup
Issued by NWS Boston, MA

Home | Current Version | Previous Version | Text Only | Print | Product List | Glossary On
Versions: 1 2 3 4 5 6 7 8 9 10 11 12 13 14 15 16 17 18 19 20 21 22 23 24 25 26 27 28 29 30 31 32 33 34 35 36 37 38 39 40 41 42 43 44 45 46 47 48 49 50
000
ASUS41 KBOX 241810
RWRBOX

REGIONAL WEATHER ROUNDUP
NATIONAL WEATHER SERVICE TAUNTON MA
200 PM EDT SUN MAY 24 2015

NOTE:  "FAIR" INDICATES FEW OR NO CLOUDS BELOW 12,000 FEET WITH NO
SIGNIFICANT WEATHER AND/OR OBSTRUCTIONS TO VISIBILITY.  THE FOLLOWING
OBSERVATION LOCATIONS DO NOT REPORT PRESENT WEATHER...PROVINCETOWN...
SMITHFIELD...BLOCK ISLAND...KEENE...AND OXFORD.

MAZALL-241900-
EASTERN MASSACHUSETTS

CITY           SKY/WX    TMP DP  RH WIND       PRES   REMARKS
BOSTON         SUNNY     81  37  20 SW17G23   30.18F
6HR MIN TEMP:  60; 6HR MAX TEMP:  81;

BEVERLY        SUNNY     81  41  24 SW14      30.16F
LAWRENCE       SUNNY     82  39  21 W15G23    30.16F
BEDFORD        SUNNY     80  37  21 W14       30.17F
BLUE HILL        N/A     80  38  22 SW16G24   30.19F
NORWOOD        SUNNY     81  40  23 W12G24    30.19F
MARSHFIELD     SUNNY     81  39  22 SW14G25   30.20F
PLYMOUTH       SUNNY     80  39  23 SW18G25   30.21F
TAUNTON        SUNNY     79  39  23 SW10G22   30.21F
NEW BEDFORD    SUNNY     74  43  32 SW21      30.23F
$$

MAZALL-241900-
CAPE COD AND THE ISLANDS

CITY           SKY/WX    TMP DP  RH WIND       PRES   REMARKS
FALMOUTH       SUNNY     70  45  40 SW24G31   30.25F
HYANNIS        SUNNY     68  50  52 SW23G29   30.23F
CHATHAM        SUNNY     64  53  67 SW16G29   30.26F
PROVINCETOWN   SUNNY     70  48  46 SW18G26   30.21S
NANTUCKET      SUNNY     61  51  70 SW20      30.30F
MARTHAS VNYRD  SUNNY     66  51  58 SW15G23   30.28F
$$

MAZALL-241900-
CENTRAL AND WESTERN MASSACHUSETTS

CITY           SKY/WX    TMP DP  RH WIND       PRES   REMARKS
WORCESTER      SUNNY     76  36  23 W13G23    30.24F
6HR MIN TEMP:  58; 6HR MAX TEMP:  77;

FITCHBURG      SUNNY     80  38  22 W14G23    30.19F
ORANGE         SUNNY     80  34  19 W13G20    30.19F
SPRINGFIELD    MOSUNNY   81  39  22 W10       30.19F
WESTFIELD      SUNNY     82  35  18 W9        30.21
NORTH ADAMS    SUNNY     77  40  26 MISG      30.21F
PITTSFIELD     SUNNY     75  38  26 W13       30.23F
$$

RIZALL-241900-
RHODE ISLAND

CITY           SKY/WX    TMP DP  RH WIND       PRES   REMARKS
PROVIDENCE     MOSUNNY   81  37  20 SW16G22   30.22F
6HR MIN TEMP:  61; 6HR MAX TEMP:  81;

NEWPORT        SUNNY     66  47  50 SW12G22   30.25F
BLOCK ISLAND   SUNNY     61  50  67 SW24      30.30F
SMITHFIELD     SUNNY     79  37  22 W5G17     30.22F
WESTERLY       SUNNY     69  46  43 S10       30.28F
$$

CTZALL-241900-
CONNECTICUT

CITY           SKY/WX    TMP DP  RH WIND       PRES   REMARKS
BRADLEY INTL   PTSUNNY   81  38  21 S16       30.21F
6HR MIN TEMP:  56; 6HR MAX TEMP:  82;

HARTFORD       MOSUNNY   79  38  22 SW13G23   30.23F
BRIDGEPORT     PTSUNNY   75  45  34 SW14      30.27F
DANBURY        MOSUNNY   75  34  22 W7G17     30.28F
GROTON         SUNNY     65  48  54 SW10      30.27F
NEW HAVEN      PTSUNNY   72  42  34 SW13G21   30.27F
CHESTER        FAIR      73  37  27 W10G17    30.27F
MERIDEN        MOSUNNY   79  33  19 SW10      30.24F
WILLIMANTIC    SUNNY     79  34  19 SW12G21   30.23F
OXFORD         PTSUNNY   75  39  27 SW7G16    30.29F
$$

MEZ002-015-021-024-NHZ003-005-008-011-012-014-VTZ005-008-241900-
NORTHERN NEW ENGLAND

CITY           SKY/WX    TMP DP  RH WIND       PRES   REMARKS
PORTLAND ME    PTSUNNY   80  41  24 W14G22    30.11F
6HR MIN TEMP:  57; 6HR MAX TEMP:  81;

BANGOR ME      PTSUNNY   72  41  32 SW15G23   30.03F
CONCORD NH     PTSUNNY   79  34  19 W14G24    30.15F
MANCHESTER NH  MOSUNNY   81  34  18 W14G24    30.14F
NASHUA NH      SUNNY     83  37  19 W13G18    30.16F
PORTSMOUTH NH  MOSUNNY   82  36  19 W16G23    30.12F
JAFFREY NH     SUNNY     77  34  21 W8G22     30.20F
KEENE NH       SUNNY    N/A N/A N/A SW14G23   30.19F
BURLINGTON VT  MOSUNNY   80  36  20 SW12G18   30.11
MT. WASHINGTON PTSUNNY   43  30  61 W45G60      N/A  WCI  30
$$

NYZ052-076-241900-
EASTERN NEW YORK

CITY           SKY/WX    TMP DP  RH WIND       PRES   REMARKS
ALBANY         PTSUNNY   80  39  23 W13G22    30.21F
6HR MIN TEMP:  54; 6HR MAX TEMP:  81;

NEW YORK CITY  PTSUNNY   79  33  19 W7        30.27F
6HR MIN TEMP:  61; 6HR MAX TEMP:  81;

$$

ANZALL-241900-
MARINE OBSERVATIONS

STATION/POSITION TIME  TEMP    WIND        PRES    VSBY  WAVE
                       AIR SEA DIR/SP/G                  HT/PER
                 (UTC) (F)     (DEG/KT/KT) (MB)    (MI)  (FT/S)
BOSTON BUOY      1750   64 54  250/  8/  8   N/A           1/10
BUZZARDS BAY     1700          230/ 24/ 26   N/A
NANTUCKET SOUND  1750   57 57  230/ 19/ 23   N/A           2/ 3
MASS BAY-STELLWA 1704   60 52  230/ 10/ 12   N/A    1 7/8  2/ 4
ISLE OF SHOALS   1700   71     260/ 13/ 15   N/A
S OF BLOCK IS    1708      53                N/A           4/ 5
$$

......................KEY.........................
  SKY/WX - SKY CONDITION/PRESENT WEATHER
  TMP    - TEMPERATURE IN FAHRENHEIT
  DWPT   - DEWPOINT IN FAHRENHEIT
  RH     - RELATIVE HUMIDITY IN PERCENT
  WIND   - DIRECTION AND SPEED IN MPH
  PRES   - MEAN SEA LEVEL PRESSURE IN INCHES OF HG
  WCI    - WIND CHILL INDEX
  VSB    - VISIBILITY IN MILES
  HX     - HEAT INDEX
  TC     - TEMPERATURE IN CELSIUS
  VRB    - VARIABLE WIND DIRECTION
  N/A    - NOT AVAILABLE


USA.gov is the U.S. government's official web portal to all federal, state and local government web resources and services.